Hamilton Island Observation History
Time Wind Speed Temp Pressure Rel. Hum Rain
14/09:30am SSE 22-25 kts 24.1°c 1014.5 hPa 73% 0.0mm
14/09:00am SE 21-25 kts 24.0°c 1014.3 hPa 80% 0.2mm
14/08:54am SE 22-25 kts 23.8°c 1014.1 hPa 81% 0.2mm
14/08:30am SSE 19-23 kts 23.8°c 1013.8 hPa 88% 0.2mm
14/08:00am SSE 17-21 kts 23.6°c 1013.6 hPa 90% 0.2mm
14/07:30am SSE 16-19 kts 23.5°c 1013.4 hPa 93% 0.2mm
14/07:00am SSE 17-19 kts 23.5°c 1013.0 hPa 95% 0.2mm
14/06:30am SE 16-19 kts 23.3°c 1012.6 hPa 96% 0.2mm
14/06:00am SSE 14-17 kts 23.4°c 1012.3 hPa 96% 0.2mm
14/05:30am SSE 12-16 kts 23.2°c 1011.8 hPa 96% 0.2mm
14/05:00am SSE 12-15 kts 23.2°c 1011.6 hPa 97% 0.2mm
14/04:30am SSE 13-16 kts 23.4°c 1011.4 hPa 97% 0.2mm
14/04:10am SSE 12-16 kts 23.6°c 1011.4 hPa 96% 0.2mm
14/04:00am SSE 10-13 kts 23.5°c 1011.3 hPa 96% 0.2mm
14/03:58am SSE 10-13 kts 23.3°c 1011.3 hPa 96% 0.2mm
14/03:30am SSE 11-14 kts 23.5°c 1011.1 hPa 96% 0.2mm
14/03:24am SSE 11-14 kts 23.5°c 1011.1 hPa 97% 0.2mm
14/03:00am SSE 9-11 kts 23.4°c 1011.0 hPa 97% 0.2mm
14/02:48am SSE 10-11 kts 23.4°c 1011.0 hPa 97% 0.2mm
14/02:30am S 10-13 kts 23.4°c 1011.0 hPa 98% 0.2mm
14/02:09am S 10-12 kts 23.6°c 1011.2 hPa 98% 0.2mm
14/02:00am S 10-12 kts 23.7°c 1011.3 hPa 98% 0.2mm
14/01:35am SSE 9-12 kts 23.7°c 1011.4 hPa 97% 0.2mm
14/01:30am SSE 10-13 kts 23.8°c 1011.5 hPa 97% 0.2mm
14/01:00am SSE 10-12 kts 24.0°c 1011.7 hPa 95% 0.2mm
14/12:38am SE 8-11 kts 24.3°c 1011.7 hPa 94% 0.2mm
14/12:30am SE 8-10 kts 24.2°c 1011.7 hPa 93% 0.2mm
14/12:00am SE 9-10 kts 24.0°c 1011.7 hPa 93% 0.2mm
Time Wind Speed Temp Pressure Rel. Hum Rain
13/11:30pm SE 9-11 kts 24.0°c 1011.9 hPa 93% 0.2mm
13/11:11pm SE 10-11 kts 24.1°c 1012.1 hPa 93% 0.2mm
13/11:00pm SE 9-11 kts 24.0°c 1012.2 hPa 93% 0.2mm
13/10:30pm SE 10-11 kts 24.0°c 1012.3 hPa 94% 0.2mm
13/10:00pm SE 9-11 kts 24.1°c 1012.3 hPa 94% 0.2mm
13/09:30pm ESE 8-11 kts 24.2°c 1012.3 hPa 95% 0.2mm
13/09:00pm SE 8-9 kts 24.1°c 1012.4 hPa 95% 0.2mm
13/08:38pm SE 8-10 kts 24.1°c 1012.4 hPa 94% 0.2mm
13/08:30pm ESE 9-11 kts 24.1°c 1012.3 hPa 93% 0.2mm
13/08:17pm ESE 11-12 kts 24.2°c 1012.1 hPa 94% 0.2mm
13/08:00pm ESE 10-11 kts 24.1°c 1011.9 hPa 93% 0.2mm
13/07:30pm ESE 9-10 kts 24.2°c 1011.7 hPa 95% 0.2mm
13/07:00pm ESE 9-11 kts 24.2°c 1011.4 hPa 92% 0.2mm
13/06:30pm ESE 11-13 kts 24.2°c 1011.1 hPa 90% 0.2mm
13/06:00pm ESE 13-15 kts 24.3°c 1010.8 hPa 89% 0.2mm
13/05:30pm ESE 12-14 kts 24.3°c 1010.7 hPa 89% 0.2mm
13/05:00pm ESE 9-11 kts 24.5°c 1010.4 hPa 86% 0.2mm
13/04:30pm E 8-10 kts 25.0°c 1010.1 hPa 84% 0.2mm
13/04:00pm ESE 10-11 kts 25.3°c 1010.0 hPa 80% 0.2mm
13/03:30pm ESE 8-9 kts 25.7°c 1010.2 hPa 80% 0.2mm
13/03:00pm ESE 9-11 kts 25.7°c 1010.1 hPa 79% 0.2mm
13/02:30pm SE 9-11 kts 25.7°c 1010.6 hPa 81% 0.2mm
13/02:00pm SE 11-12 kts 26.1°c 1010.9 hPa 82% 0.2mm
13/01:30pm SE 12-15 kts 26.2°c 1011.2 hPa 84% 0.2mm
13/01:00pm SE 13-15 kts 25.7°c 1011.6 hPa 83% 0.2mm
13/12:30pm SSE 15-16 kts 25.4°c 1011.9 hPa 85% 0.2mm
13/12:17pm SSE 15-18 kts 25.6°c 1012.0 hPa 84% 0.2mm
13/12:00pm SSE 15-17 kts 25.4°c 1012.1 hPa 85% 0.2mm
13/11:30am SSE 14-17 kts 25.4°c 1012.4 hPa 86% 0.2mm
13/11:00am SSE 13-17 kts 25.2°c 1012.7 hPa 86% 0.2mm
13/10:30am SSE 14-19 kts 25.2°c 1013.0 hPa 85% 0.0mm
13/10:28am SSE 14-19 kts 25.1°c 1013.0 hPa 85% 0.0mm
13/10:06am SSE 14-17 kts 25.1°c 1013.2 hPa 86% 0.0mm
13/10:00am SSE 14-17 kts 25.2°c 1013.2 hPa 86% 0.0mm
13/09:55am SSE 13-17 kts 25.0°c 1013.2 hPa 86% 0.0mm
13/09:37am SSE 13-15 kts 25.1°c 1013.2 hPa 87% 0.0mm
13/09:30am SSE 12-15 kts 25.0°c 1013.3 hPa 87% 0.0mm
13/09:11am SSE 13-16 kts 24.5°c 1013.4 hPa 89% 0.0mm
13/09:10am SSE 13-16 kts 24.5°c 1013.4 hPa 89% 0.0mm
13/09:00am SSE 14-17 kts 24.4°c 1013.4 hPa 91% 0.0mm
13/08:40am SSE 15-17 kts 24.1°c 1013.3 hPa 91% 0.0mm
13/08:39am SSE 15-17 kts 24.0°c 1013.3 hPa 90% 0.0mm
13/08:30am SSE 14-17 kts 24.0°c 1013.3 hPa 91% 0.0mm
13/08:20am SSE 14-18 kts 24.2°c 1013.3 hPa 92% 0.0mm
13/08:07am SSE 12-16 kts 24.1°c 1013.2 hPa 91% 0.0mm
13/08:00am SSE 12-16 kts 24.0°c 1013.1 hPa 90% 0.0mm
13/07:33am SSE 11-15 kts 23.8°c 1012.8 hPa 94% 0.0mm
13/07:30am SSE 11-14 kts 23.8°c 1012.8 hPa 95% 0.0mm
13/07:00am SSE 11-14 kts 23.5°c 1012.4 hPa 97% 0.0mm
13/06:30am SSE 12-15 kts 23.3°c 1012.1 hPa 97% 0.0mm
13/06:11am SSE 10-13 kts 23.3°c 1011.9 hPa 97% 0.0mm
13/06:00am SSE 11-15 kts 23.3°c 1011.8 hPa 96% 0.0mm
13/05:30am SSE 10-12 kts 23.3°c 1011.5 hPa 93% 0.0mm
13/05:00am SSE 10-15 kts 23.3°c 1011.1 hPa 98% 0.0mm
13/04:30am S 10-13 kts 23.2°c 1010.9 hPa 97% 0.0mm
13/04:00am S 10-13 kts 23.1°c 1010.8 hPa 98% 0.0mm
13/03:30am S 10-11 kts 23.0°c 1010.9 hPa 99% 0.0mm
13/03:00am S 12-15 kts 23.2°c 1010.9 hPa 100% 0.0mm
13/02:54am S 11-14 kts 23.2°c 1011.0 hPa 99% 0.0mm
13/02:46am S 11-13 kts 23.2°c 1011.0 hPa 99% 0.0mm
13/02:30am S 12-13 kts 23.2°c 1011.2 hPa 98% 0.0mm
13/02:00am S 9-11 kts 23.5°c 1011.6 hPa 99% 0.0mm
13/01:30am SSE 9-12 kts 23.7°c 1011.8 hPa 99% 0.0mm
13/01:00am S 9-11 kts 23.8°c 1012.2 hPa 98% 0.0mm
13/12:30am SSE 8-10 kts 23.9°c 1012.4 hPa 98% 0.0mm
13/12:00am SSE 7-9 kts 23.8°c 1012.6 hPa 98% 0.0mm
Time Wind Speed Temp Pressure Rel. Hum Rain
12/11:30pm SSE 9-10 kts 23.9°c 1012.8 hPa 98% 0.0mm
12/11:00pm SE 9-11 kts 23.8°c 1012.7 hPa 98% 0.0mm
12/10:30pm SE 10-12 kts 23.9°c 1012.9 hPa 97% 0.0mm
12/10:04pm SE 10-12 kts 23.9°c 1013.1 hPa 97% 0.0mm
12/10:00pm SE 11-12 kts 23.9°c 1013.1 hPa 96% 0.0mm
12/09:30pm SSE 8-10 kts 23.8°c 1013.2 hPa 95% 0.0mm
12/09:00pm SE 8-9 kts 23.9°c 1013.4 hPa 95% 0.0mm
12/08:30pm SE 10-11 kts 23.9°c 1013.3 hPa 94% 0.0mm
12/08:00pm SE 9-10 kts 23.8°c 1013.2 hPa 94% 0.0mm
12/07:30pm SE 10-11 kts 24.0°c 1012.9 hPa 92% 0.0mm
12/07:00pm SE 10-11 kts 24.0°c 1012.7 hPa 93% 0.0mm
12/06:30pm SE 9-11 kts 23.9°c 1012.4 hPa 94% 0.0mm
12/06:00pm SE 12-14 kts 24.2°c 1012.2 hPa 94% 0.0mm
12/05:30pm SE 11-13 kts 24.4°c 1012.2 hPa 89% 0.0mm
12/05:00pm ESE 9-11 kts 24.9°c 1012.0 hPa 87% 0.0mm
12/04:30pm ESE 9-11 kts 25.0°c 1011.6 hPa 85% 0.0mm
12/04:00pm SE 13-15 kts 25.1°c 1011.5 hPa 89% 0.0mm
12/03:30pm SE 15-16 kts 25.1°c 1011.6 hPa 89% 0.0mm
12/03:00pm SSE 12-15 kts 25.1°c 1011.8 hPa 86% 0.0mm
12/02:30pm SSE 14-16 kts 25.1°c 1011.8 hPa 89% 0.0mm
12/02:00pm SSE 13-16 kts 25.6°c 1012.1 hPa 86% 0.0mm
12/01:30pm SSE 13-15 kts 25.5°c 1012.4 hPa 86% 0.0mm
12/01:00pm SSE 15-16 kts 25.6°c 1012.7 hPa 87% 0.0mm
12/12:40pm SSE 14-16 kts 25.4°c 1012.8 hPa 87% 0.0mm
12/12:30pm SSE 14-17 kts 25.6°c 1012.9 hPa 87% 0.0mm
12/12:00pm SSE 14-17 kts 25.1°c 1013.4 hPa 89% 0.0mm
12/11:41am SSE 12-15 kts 25.5°c 1013.8 hPa 89% 0.0mm
12/11:33am SSE 12-14 kts 25.4°c 1013.9 hPa 88% 0.0mm
12/11:30am SSE 12-14 kts 25.2°c 1014.1 hPa 89% 0.0mm
12/11:00am SSE 11-14 kts 25.0°c 1014.5 hPa 89% 0.0mm
12/10:30am SSE 11-15 kts 24.9°c 1015.0 hPa 90% 0.0mm
12/10:00am SSE 12-15 kts 25.1°c 1014.8 hPa 90% 0.0mm
12/09:30am SSE 12-15 kts 24.6°c 1015.0 hPa 93% 0.0mm
12/09:00am SSE 12-16 kts 24.2°c 1014.8 hPa 96% 0.2mm
12/08:30am SSE 12-15 kts 23.9°c 1014.6 hPa 98% 0.2mm
12/08:00am SSE 11-14 kts 23.7°c 1014.5 hPa 98% 0.2mm
12/07:30am SSE 12-15 kts 23.6°c 1014.2 hPa 99% 0.2mm
12/07:00am SSE 11-14 kts 23.5°c 1013.7 hPa 100% 0.2mm
12/06:30am SSE 13-16 kts 23.5°c 1013.4 hPa 100% 0.2mm
12/06:00am SSE 12-15 kts 23.4°c 1013.1 hPa 100% 0.2mm
12/05:53am SSE 12-15 kts 23.4°c 1013.1 hPa 100% 0.2mm
12/05:49am SSE 12-15 kts 23.5°c 1013.0 hPa 100% 0.2mm
12/05:30am SSE 13-16 kts 23.4°c 1012.9 hPa 100% 0.2mm
12/05:28am SSE 13-15 kts 23.4°c 1012.9 hPa 100% 0.2mm
12/05:22am SSE 12-15 kts 23.4°c 1012.9 hPa 100% 0.2mm
12/05:10am SSE 11-14 kts 23.5°c 1013.0 hPa 100% 0.2mm
12/05:03am SSE 10-13 kts 23.4°c 1013.0 hPa 100% 0.2mm
12/05:00am SSE 11-14 kts 23.4°c 1013.0 hPa 100% 0.2mm
12/04:30am SSE 11-14 kts 23.5°c 1013.0 hPa 100% 0.2mm
12/04:00am SSE 12-15 kts 23.6°c 1013.1 hPa 100% 0.2mm
12/03:30am SSE 11-14 kts 23.6°c 1013.1 hPa 100% 0.2mm
12/03:00am SSE 12-15 kts 23.7°c 1012.9 hPa 100% 0.2mm
12/02:30am SSE 11-14 kts 23.6°c 1013.3 hPa 100% 0.2mm
12/02:01am SSE 10-12 kts 23.7°c 1013.3 hPa 100% 0.2mm
12/02:00am SSE 10-12 kts 23.8°c 1013.4 hPa 100% 0.2mm
12/01:43am SSE 9-11 kts 23.9°c 1013.5 hPa 100% 0.2mm
12/01:30am SSE 10-11 kts 23.9°c 1013.6 hPa 100% 0.2mm
12/01:00am SSE 9-10 kts 24.0°c 1014.0 hPa 100% 0.2mm
12/12:30am SSE 8-9 kts 24.1°c 1014.1 hPa 100% 0.2mm
12/12:00am SSE 9-11 kts 24.0°c 1014.1 hPa 100% 0.2mm